Current Weather Conditions: station 62154

sailwx.info

Wind from 190 at 19 knots

Wave height 0.9 meters (2 feet), 4 second period

Air temperature 16.9° C
Dewpoint 15.5° C

Last reported at 2019-Aug-24 08:00 UTC.
Time now 2019-Aug-24 10:01 UTC

Location: N 56°24' E 002°12'.
View on Google Maps.

See reports from other nearby stations

  
Tides and Currents Weather Stations Pressure Air Temp Water Temp Dewpoint Dewpoint Depression Visibility Wind Speed Wind Dir Waves Ship Positions
date/time (UTC)wind fromknots sea level pressurealtimeterstation pressurevisibilityair tempwater tempwave heightnotes
2019-Aug-24 08:00 190 19 16.9 0.9
2019-Aug-24 07:00 190 20 16.7 0.9
2019-Aug-24 06:00 190 20 16.7 1.0
2019-Aug-24 05:00 190 20 16.6 0.9
2019-Aug-24 04:00 200 19 16.6 0.8
2019-Aug-24 03:00 200 15 16.4 0.7
2019-Aug-24 02:00 190 15 16.6 0.7
2019-Aug-24 01:00 190 13 16.5 0.7
2019-Aug-24 00:00 210 11 16.4 0.7
2019-Aug-23 23:00 200 11 16.3 0.8
2019-Aug-23 22:00 200 11 16.4 1.0
2019-Aug-23 21:00 210 12 16.5 0.9
2019-Aug-23 20:00 200 13 16.6 1.0
2019-Aug-23 19:00 220 14 17.0 1.0
2019-Aug-23 18:00 220 15 17.4 1.2
2019-Aug-23 17:00 210 14 18.2 1.2
2019-Aug-23 16:00 230 18 19.0 1.3
2019-Aug-23 15:00 240 19 18.8 1.4
2019-Aug-23 14:00 230 14 19.3 1.4
2019-Aug-23 13:00 250 15 18.2 1.5
2019-Aug-23 12:00 240 20 17.8 1.6
2019-Aug-23 11:00 240 20 17.6 1.5
2019-Aug-23 10:00 240 20 17.5 1.6
2019-Aug-23 09:00 240 19 17.2 1.8
2019-Aug-23 08:00 230 17 17.2 1.8
2019-Aug-23 07:00 250 19 16.7 2.0
2019-Aug-23 06:00 260 20 16.6 2.0
2019-Aug-23 05:00 260 20 16.7 1.9
2019-Aug-23 04:00 260 20 16.6 2.0
2019-Aug-23 03:00 250 20 16.7 1.6
2019-Aug-23 02:00 250 18 16.7 1.8
2019-Aug-23 01:00 250 21 16.8 1.5
2019-Aug-23 00:00 240 22 17.1 1.7
2019-Aug-22 23:00 230 24 16.9 1.5
2019-Aug-22 22:00 220 21 16.6 1.6
2019-Aug-22 21:00 220 22 16.6 1.6
2019-Aug-22 20:00 220 20 16.5 1.6
2019-Aug-22 19:00 220 20 16.6 1.8
2019-Aug-22 18:00 220 22 16.8 1.8
2019-Aug-22 17:00 220 21 17.1 1.8
2019-Aug-22 16:00 220 20 17.3 1.7
2019-Aug-22 15:00 220 19 16.6 1.7
2019-Aug-22 14:00 210 17 16.8 1.8
2019-Aug-22 13:00 220 19 16.5 2.0
2019-Aug-22 12:00 220 19 16.4 2.2
2019-Aug-22 11:00 220 20 16.3 2.2
2019-Aug-22 10:00 230 17 16.0 2.2